Location: Brivio
(45.7333°N, 9.4500°E)
Time: 14:30:15
(UTC+00:00)

ASTEX 1 - Pass Details

Date: 18 October 2019
Orbit: 722 x 742 km, 92.7° (Epoch: 12 November)

Event Time Altitude Azimuth Distance (km) Brightness Sun altitude
Rises 17:05:01 0° 10° (N) 3,165 6.5 -6.5°
Reaches altitude 10° 17:07:24 10° 16° (NNE) 2,242 5.7 -6.9°
Maximum altitude 17:12:12 49° 92° (E) 946 3.6 -7.8°
Drops below altitude 10° 17:17:00 10° 167° (SSE) 2,238 5.8 -8.6°
Sets 17:19:22 0° 172° (S) 3,158 6.7 -9.0°
